This demonstration page uses our WeatherBlox Daily Observations layout. Learn more.

Left ArrowRight Arrow

31.84235, -102.49876

Hourly Observations for June 9, 2022

Temp ( °F °C ) Dew Point ( °F °C ) Humidity (%) Winds ( mph kmh ) Pressure ( in mb ) Visibility ( mi km ) Precip ( " mm )
12:53 am 00:53 Clear 78 25.6 57 13.9 48 48 E 13 20 29.90 1013 10 16 0.00 0.00
1:53 am 01:53 Clear 77 25 58 14.4 52 52 E 12 19 29.90 1012 10 16 0.00 0.00
2:53 am 02:53 Clear 75 23.9 59 15 58 58 E 14 22 29.89 1012 10 16 0.00 0.00
3:53 am 03:53 Clear 74 23.3 59 15 60 60 ENE 13 20 29.89 1012 10 16 0.00 0.00
4:53 am 04:53 Clear 72 22.2 59 15 64 64 NE 12 19 29.91 1013 10 16 0.00 0.00
5:53 am 05:53 Clear 71 21.7 60 15.6 68 68 E 10 17 29.92 1013 10 16 0.00 0.00
6:53 am 06:53 Sunny 71 21.7 60 15.6 68 68 E 12 19 29.94 1014 10 16 0.00 0.00
7:53 am 07:53 Sunny 72 22.2 61 16.1 68 68 E 14 22 29.95 1014 10 16 0.00 0.00
8:53 am 08:53 Sunny 75 23.9 63 17.2 66 66 ESE 15 24 29.95 1014 10 16 0.00 0.00
9:53 am 09:53 Sunny 79 26.1 65 18.3 62 62 SE 14 22 29.95 1014 10 16 0.00 0.00
10:53 am 10:53 Sunny 83 28.3 66 18.9 57 57 S 14 22 29.95 1014 9 14 0.00 0.00
11:53 am 11:53 Sunny 86 30 65 18.3 49 49 S 12 19 29.95 1014 9 14 0.00 0.00
12:53 pm 12:53 Sunny 90 32.2 63 17.2 41 41 S 13 20 29.94 1014 10 16 0.00 0.00
1:53 pm 13:53 Sunny 92 33.3 61 16.1 36 36 SE 14 22 29.91 1013 10 16 0.00 0.00
2:53 pm 14:53 Sunny 95 35 59 15 30 30 S 14 22 29.88 1012 10 16 0.00 0.00
3:53 pm 15:53 Sunny 96 35.6 55 12.8 25 25 SSW 16 26 29.85 1011 10 16 0.00 0.00
4:53 pm 16:53 Sunny 98 36.7 53 11.7 22 22 SSW 14 22 29.83 1010 10 16 0.00 0.00
5:53 pm 17:53 Sunny 97 36.1 52 11.1 22 22 S 14 22 29.80 1009 10 16 0.00 0.00
6:53 pm 18:53 Sunny 96 35.6 45 7.2 17 17 S 10 17 29.78 1009 10 16 0.00 0.00
7:53 pm 19:53 Sunny 94 34.4 48 8.9 21 21 S 14 22 29.79 1009 10 16 0.00 0.00
8:53 pm 20:53 Sunny 91 32.8 46 7.8 21 21 S 13 20 29.80 1009 10 16 0.00 0.00
9:53 pm 21:53 Clear 88 31.1 50 10 27 27 S 13 20 29.82 1010 10 16 0.00 0.00
10:53 pm 22:53 Clear 86 30 53 11.7 32 32 S 14 22 29.83 1010 10 16 0.00 0.00
11:53 pm 23:53 Clear 84 28.9 54 12.2 36 36 S 9 15 29.85 1011 10 16 0.00 0.00

Powered by AerisWeather